Showing default

COSMOS 209, 3158

Orbit data source: Space-Track

COSMOS 209, 3158 is a payload satellite owned by TSKBM (CIS) in LEO that was launched on Fri, 22 Mar 1968 UTC via a TSIKLON-2A launch vehicle from the Tyuratam Missile And Space Complex (TTMTR). Payload-class satellites include a variety of spacecraft equipped with specific instruments for various scientific and technological missions. These include communications satellites like Starlink; space stations such as the ISS; scientific satellites like the Hubble; Earth observation satellites from companies like Planet Labs, Umbra, and HawkEye 360; GPS; miniature CubeSats for education and research; and military/defense satellites.

Loading next visibility...
Identifier
3158, 1968-023A
Orbit
LEO
Country
Flag of CISCIS
Related business
Manufacturer
TSKBM/KB1
Mission
Spacecraft
Bus & Motor
US-A REACTOR, Unknown motor
Mass
3,800 kg wet, 1,140 kg dry
Launch date (UTC)
1968-03-22 (58 years ago)
Launch vehicle
TSIKLON-2A
Launch site
Tyuratam Missile And Space Complex (TTMTR)
Object type
Payload
Rocket body
Debris
Shape & HBR
Unknown
Radar Cross Section
Large (>1 m²)

Expand to show TLE details & history
Last TLE update: 8 hours ago

TLE from 8 hours ago
0 COSMOS 209
1 03158U 68023A   25293.89298237 -.00000017  00000-0  50827-4 0  9990
2 03158  65.3297 101.1410 0043673 323.0358  36.7705 13.97912642937568
Epoch: 2025-10-20T21:25Z
TLE epoch observation values (Epoch: 2025-10-20T21:25:53.676Z)
Latitude
0.00001°
Longitude
110.07859°
Altitude
877.582 km
Speed
7.427 km/s
True Right ascension
06h 44m 33s
True Declination
0° 00' 00"
Sunlit
Object was in daylight at epoch
Visualization orbit readout
Latitude
Unknown
Longitude
Unknown
Altitude
Unknown
Speed
Unknown
Apparent Right ascension
Unknown
Apparent Declination
Unknown
Sunlit
N/A
Visualization observer readout
Local Sidereal Time
00:15:05
Azimuth
Unknown
Elevation
Unknown
Doppler factor
Unknown
Orbital elements
Apogee altitude
931.377 km
Perigee altitude
867.809 km
Semi-major axis
7,277.73 km
Eccentricity
0.00437
Inclination
65.3297°
RAAN
101.141°
Arg. of periapsis
323.0358°
True anomaly
37.07139°
Mean anomaly
36.7705°
Eccentric anomaly
36.92081°
Mean motion
3.49582 °/min
Orbital period
102.98 mins
BSTAR
0.000050827
Loading maneuver chart data...
Computing Atmospheric mass density...
Loading historical data...
Loading historical data...
Loading historical data...
Loading historical data...
Loading historical data...
Loading historical data...
Loading historical data...

Documentation

Showing up to 5 results
|